Regional Weather Roundup
Issued by NWS

Home | Current Version | Previous Version | Graphics & Text | Print | Product List | Glossary Off
Versions: 1 2 3 4 5 6 7 8 9 10 11 12 13 14 15 16 17 18 19 20 21 22 23 24 25 26 27 28 29 30 31 32 33 34 35 36 37 38 39 40 41 42 43 44 45 46 47 48 49 50

000
ASUS43 KTOP 011508
RWRKS

WEATHER ROUNDUP FOR KANSAS
NATIONAL WEATHER SERVICE GOODLAND KS
1000 AM CDT WED APR 01 2015

NOTE:  "FAIR" INDICATES FEW OR NO CLOUDS BELOW 12,000 FEET WITH NO
SIGNIFICANT WEATHER AND/OR OBSTRUCTIONS TO VISIBILITY.

KSZ001>006-013>018-027>032-041>047-011600-
NORTHWEST KANSAS

CITY           SKY/WX    TMP DP  RH WIND       PRES   REMARKS
GOODLAND       MOSUNNY   57  44  62 S20       29.70F
HAYS           SUNNY     68  45  42 S26G32    29.75S
HILL CITY      SUNNY     67  44  43 S28G38    29.72F
RUSSELL        SUNNY     67  46  47 S21G28    29.73F
$$

KSZ061>065-074>080-084>089-011600-
SOUTHWEST KANSAS

CITY           SKY/WX    TMP DP  RH WIND       PRES   REMARKS
DODGE CITY     SUNNY     64  46  52 MISG      29.78F
ELKHART          N/A     56  36  47 S10         N/A
GARDEN CITY    SUNNY     60  48  64 S20G30    29.76S
GREAT BEND     SUNNY     66  46  48 S24G30    29.76F
LIBERAL        SUNNY     63  50  63 SE17G28   29.79S
PRATT          SUNNY     64  46  52 S23       29.80S
$$

KSZ066>073-081>083-090>101-011600-
SOUTHEAST KANSAS

CITY           SKY/WX    TMP DP  RH WIND       PRES   REMARKS
CHANUTE        CLOUDY    65  55  70 SE7       29.86F
COFFEYVILLE    CLOUDY    66  58  75 SE3       29.85S
HUTCHINSON     SUNNY     67  49  52 S20       29.81F
MEDICINE LODGE   N/A     64  50  60 S9G17     29.80S
NEWTON         MOSUNNY   64  48  55 S17       29.84S
PARSONS        CLOUDY    67  58  72 VRB3      29.86F
WICHITA INTL   MOSUNNY   66  50  56 SE18      29.81F
WICHITA JABRA  MOSUNNY   66  50  56 S16G24    29.82F
WICHITA MCCONL MOSUNNY   64  51  61 SE18      29.82S
WINFIELD       MOSUNNY   67  52  58 SE15      29.85R
$$

KSZ007>012-019>026-033>040-048>060-102>105-011600-
NORTHEAST KANSAS

CITY           SKY/WX    TMP DP  RH WIND       PRES   REMARKS
CONCORDIA      SUNNY     67  48  50 S14       29.76F
EMPORIA        CLOUDY    64  50  60 S7        29.84S
LAWRENCE       CLOUDY    62  46  55 SE15      29.86F
MANHATTAN      SUNNY     68  49  50 SE10      29.81S
MARYSVILLE     SUNNY     68  48  49 S15       29.80S
OLATHE IND     CLOUDY    64  48  56 S18       29.88S
OLATHE EXE     CLOUDY    63  47  55 SE14      29.88S
SALINA         SUNNY     68  50  52 S15       29.79S
TOPEKA BILLARD MOSUNNY   63  44  50 S13       29.85F
TOPEKA FORBES  PTSUNNY   62  42  47 SE9       29.84F
$$


USA.gov is the U.S. government's official web portal to all federal, state and local government web resources and services.